Airfield :
LOGIN :

Register | Disclaimer

   EN    FR    IT 

 










Legend :    VFR   Marginal VFR   IFR   Intensive IFR   Very Intensive IFR
Visi :
Ceiling :
>= 8 km
>= 3000ft
5 to 8 km
1000 to 3000 ft
1500m to 5 km
500 to 1000 ft
800 to 1500m
200 to 500 ft
< 800m
< 200 ft
Symbols :   Thunderstorms  Fog  Heavy snow  Heavy precipitations  Wind > 20 kt
SIGMETs :     Misc.  Thunderstorms  Icing  Turbulence  Mountain Waves  Volcanic Ashes






- Airport Elevation : 1325 ft
- IATA code : EBU


LFMH - St-Etienne Boutheon

CURRENT METAR :
  • 280730Z AUTO 13003KT 090V150 9999 -RA OVC050/// //////TCU 09/07 Q1014

EXPIRED METARs :
  • 280700Z AUTO 18005KT 9999 -RA OVC054/// ///CB 09/07 Q1014
  • 280630Z AUTO 17005KT 9999 -RA OVC056/// ///TCU 09/07 Q1014
  • 280600Z AUTO 21003KT 170V250 9999 -RA ///TCU 09/07 Q1014
  • 280530Z AUTO 24005KT 210V290 9999 -RA ///TCU 10/07 Q1014
  • 280500Z AUTO 19007KT 170V230 9999 -RA ///TCU 10/06 Q1014

Expired Forecast.
ATIS : +33 4 77 36 17 51



MET'MAP, your aeronautical weather chart ! - Copyright ORBIFLY December 2007 - Disclaimer

ORBIFLY MET'MAP TEAM :

Programming & Development : Alexandra Zaïnal
Original concept : Baudouin d'Aumeries
Technical & hardware support : Manuel Goepfert
Assistance : Marc-Olivier Méhu




SOURCES & CREDITS :

   NOAA